Weather History for Cape Girardeau, MO

Change the Weather History Date:

Thursday, August 1, 2013

  Actual Average Record
Temperature  
Mean Temperature 76 °F 78 °F  
Max Temperature 88 °F 89 °F 98 °F (1964)
Min Temperature 64 °F 67 °F 54 °F (1971)
Degree Days  
Heating Degree Days 0 0  
Month to date heating degree days 0 0  
Since 1 June heating degree days 0 4  
Since 1 July heating degree days 0 0  
Cooling Degree Days 11 13  
Month to date cooling degree days 11 13  
Year to date cooling degree days 855 899  
Since 1 June cooling degree days 684 747  
Growing Degree Days 26 (Base 50)    
Moisture  
Dew Point 66 °F    
Average Humidity 72    
Maximum Humidity 100    
Minimum Humidity 43    
Precipitation  
Precipitation 0.00 in 0.10 in 0.70 in (1967)
Month to date precipitation 0.00 0.10  
Year to date precipitation 24.70 28.13  
Sea Level Pressure  
Sea Level Pressure 30.03 in    
Wind  
Wind Speed 4 mph (North)    
Max Wind Speed 13 mph    
Max Gust Speed 17 mph    
Visibility 10 miles    
Events      
T = Trace of Precipitation, MM = Missing Value Source: NWS Daily Summary

Daily Weather History Graph

Daily Weather History Graph

Search for Another Location

Airport:

Trip Planner

Search our weather history database for the weather conditions in past years. The results will help you decide how hot, cold, wet, or windy it might be!

Date:

Astronomy

Aug. 01, 2013 Rise Set
Actual Time 6:03 AM CDT 8:05 PM CDT
Civil Twilight 5:34 AM CDT 8:34 PM CDT
Nautical Twilight 4:59 AM CDT 9:09 PM CDT
Astronomical Twilight 4:21 AM CDT 9:46 PM CDT
Moon 1:40 AM CDT (8/1) 4:13 PM CDT (8/1)
Length of Visible Light 14h 59m
Length of Day
14h 02m
Waning Crescent, 23% of the Moon is Illuminated
Aug 1
Waning Crescent
Aug 6
New
Aug 14
First Quarter
Aug 20
Full
Aug 28
Last Quarter

Hourly Weather History & Observations

Time (CDT) Temp. Heat Index Dew Point Humidity Pressure Visibility Wind Dir Wind Speed Gust Speed Precip Events Conditions
12:53 AM 72.0 °F - 68.0 °F 87% 30.02 in 10.0 mi North 3.5 mph - N/A   Clear
1:53 AM 71.1 °F - 66.9 °F 87% 30.01 in 10.0 mi North 4.6 mph - N/A   Clear
2:53 AM 70.0 °F - 66.0 °F 87% 30.01 in 10.0 mi NNW 4.6 mph - N/A   Clear
3:53 AM 69.1 °F - 66.0 °F 90% 30.01 in 10.0 mi NNW 4.6 mph - N/A   Clear
4:53 AM 68.0 °F - 64.9 °F 90% 30.01 in 10.0 mi NW 4.6 mph - N/A   Clear
5:53 AM 64.9 °F - 64.0 °F 97% 30.03 in 8.0 mi Calm Calm - N/A   Clear
6:53 AM 66.0 °F - 64.0 °F 93% 30.05 in 5.0 mi Calm Calm - N/A   Clear
7:53 AM 70.0 °F - 66.9 °F 90% 30.06 in 9.0 mi Calm Calm - N/A   Clear
8:53 AM 73.9 °F - 66.9 °F 79% 30.07 in 10.0 mi NNW 4.6 mph - N/A   Clear
9:53 AM 78.1 °F - 66.0 °F 66% 30.07 in 10.0 mi NW 5.8 mph - N/A   Clear
10:53 AM 80.1 °F 82.3 °F 66.9 °F 64% 30.07 in 10.0 mi North 8.1 mph - N/A   Partly Cloudy
11:53 AM 82.9 °F 85.8 °F 68.0 °F 60% 30.07 in 10.0 mi NNW 5.8 mph - N/A   Partly Cloudy
12:53 PM 84.9 °F 87.6 °F 66.9 °F 55% 30.05 in 10.0 mi North 5.8 mph - N/A   Scattered Clouds
1:53 PM 86.0 °F 88.2 °F 66.0 °F 51% 30.04 in 10.0 mi North 8.1 mph - N/A   Partly Cloudy
2:53 PM 87.1 °F 88.3 °F 64.0 °F 46% 30.03 in 10.0 mi North 3.5 mph - N/A   Clear
3:53 PM 88.0 °F 89.3 °F 64.0 °F 45% 30.01 in 10.0 mi North 8.1 mph - N/A   Clear
4:53 PM 87.1 °F 87.5 °F 62.1 °F 43% 30.01 in 10.0 mi NNE 5.8 mph - N/A   Partly Cloudy
5:53 PM 86.0 °F 86.3 °F 62.1 °F 44% 30.00 in 10.0 mi ENE 8.1 mph - N/A   Partly Cloudy
6:53 PM 84.0 °F 85.4 °F 64.0 °F 51% 30.00 in 10.0 mi NE 3.5 mph - N/A   Clear
7:53 PM 79.0 °F - 64.9 °F 62% 29.99 in 10.0 mi NE 4.6 mph - N/A   Clear
8:53 PM 73.9 °F - 66.9 °F 79% 29.99 in 10.0 mi Calm Calm - N/A   Clear
9:53 PM 72.0 °F - 66.0 °F 81% 30.00 in 10.0 mi Calm Calm - N/A   Clear
10:53 PM 69.1 °F - 66.0 °F 90% 30.01 in 10.0 mi Calm Calm - N/A   Clear
11:53 PM 66.9 °F - 64.9 °F 93% 30.01 in 10.0 mi Calm Calm - N/A   Clear